Weather History for West Palm Beach, FL

Change the Weather History Date:

Sunday, January 13, 2013

  Actual Average Record
Temperature  
Mean Temperature 77 °F 65 °F  
Max Temperature 81 °F 74 °F 84 °F (1946)
Min Temperature 72 °F 57 °F 31 °F (1922)
Degree Days  
Heating Degree Days 0 3  
Month to date heating degree days 0 39  
Since 1 July heating degree days 43 110  
Cooling Degree Days 12 3  
Month to date cooling degree days 125 46  
Year to date cooling degree days 125 46  
Growing Degree Days 26 (Base 50)    
Moisture  
Dew Point 63 °F    
Average Humidity 66    
Maximum Humidity 73    
Minimum Humidity 58    
Precipitation  
Precipitation T in 0.11 in 2.57 in (1948)
Month to date precipitation 0.43 1.42  
Year to date precipitation 0.43 1.42  
Snow  
Snow 0.00 in - - ()
Month to date snowfall 0.0  
Since 1 July snowfall 0.0  
Snow Depth 0.00 in    
Sea Level Pressure  
Sea Level Pressure 30.11 in    
Wind  
Wind Speed 12 mph (ESE)    
Max Wind Speed 20 mph    
Max Gust Speed 23 mph    
Visibility 10 miles    
Events Rain    
T = Trace of Precipitation, MM = Missing Value Source: NWS Daily Summary

Daily Weather History Graph

Daily Weather History Graph

Search for Another Location

Airport:

Trip Planner

Search our weather history database for the weather conditions in past years. The results will help you decide how hot, cold, wet, or windy it might be!

Date:

Astronomy

Jan. 13, 2013 Rise Set
Actual Time 7:10 AM EST 5:48 PM EST
Civil Twilight 6:45 AM EST 6:13 PM EST
Nautical Twilight 6:17 AM EST 6:41 PM EST
Astronomical Twilight 5:48 AM EST 7:09 PM EST
Moon 8:23 AM EST (1/13) 8:06 PM EST (1/13)
Length of Visible Light 11h 27m
Length of Day
10h 37m
Waxing Crescent, 5% of the Moon is Illuminated
Jan 13
Waxing Crescent
Jan 18
First Quarter
Jan 26
Full
Feb 3
Last Quarter
Feb 10
New

Hourly Weather History & Observations

Time (EST) Temp. Heat Index Dew Point Humidity Pressure Visibility Wind Dir Wind Speed Gust Speed Precip Events Conditions
12:53 AM 73.9 °F - 64.0 °F 71% 30.10 in 10.0 mi East 10.4 mph - N/A   Scattered Clouds
1:53 AM 73.9 °F - 64.9 °F 73% 30.10 in 10.0 mi East 13.8 mph - N/A   Scattered Clouds
2:53 AM 73.9 °F - 64.9 °F 73% 30.09 in 10.0 mi East 13.8 mph - N/A   Scattered Clouds
3:53 AM 73.9 °F - 63.0 °F 68% 30.08 in 10.0 mi ESE 13.8 mph - N/A   Scattered Clouds
4:53 AM 73.9 °F - 63.0 °F 68% 30.09 in 10.0 mi ESE 11.5 mph - N/A   Scattered Clouds
5:53 AM 73.0 °F - 62.1 °F 68% 30.09 in 10.0 mi ESE 10.4 mph - N/A   Partly Cloudy
6:53 AM 73.0 °F - 62.1 °F 68% 30.09 in 10.0 mi ESE 10.4 mph - N/A   Scattered Clouds
7:53 AM 73.9 °F - 63.0 °F 68% 30.09 in 10.0 mi ESE 16.1 mph - N/A   Scattered Clouds
8:53 AM 75.9 °F - 64.9 °F 69% 30.10 in 10.0 mi SE 16.1 mph 21.9 mph N/A   Scattered Clouds
9:53 AM 78.1 °F - 64.9 °F 64% 30.12 in 10.0 mi SE 16.1 mph - N/A   Scattered Clouds
10:53 AM 79.0 °F - 64.9 °F 62% 30.11 in 10.0 mi ESE 16.1 mph - N/A   Scattered Clouds
11:09 AM 78.8 °F - 66.2 °F 65% 30.11 in 10.0 mi ESE 15.0 mph - N/A   Mostly Cloudy
11:53 AM 77.0 °F - 66.9 °F 71% 30.12 in 10.0 mi ESE 10.4 mph - 0.00 in Rain Light Rain
12:53 PM 79.0 °F - 64.9 °F 62% 30.11 in 10.0 mi SE 10.4 mph - 0.00 in   Mostly Cloudy
1:37 PM 80.6 °F 82.3 °F 64.4 °F 58% 30.10 in 10.0 mi SE 10.4 mph - N/A   Mostly Cloudy
1:53 PM 80.1 °F 81.9 °F 64.9 °F 60% 30.10 in 10.0 mi SE 11.5 mph - N/A   Mostly Cloudy
2:53 PM 79.0 °F - 63.0 °F 58% 30.10 in 10.0 mi SE 11.5 mph - N/A   Mostly Cloudy
3:53 PM 77.0 °F - 63.0 °F 62% 30.11 in 10.0 mi SSE 8.1 mph - N/A   Mostly Cloudy
4:53 PM 77.0 °F - 63.0 °F 62% 30.12 in 10.0 mi SE 10.4 mph - N/A   Mostly Cloudy
5:53 PM 75.9 °F - 63.0 °F 64% 30.13 in 10.0 mi ESE 11.5 mph - N/A   Mostly Cloudy
6:53 PM 75.9 °F - 62.1 °F 62% 30.13 in 10.0 mi ESE 11.5 mph - N/A   Mostly Cloudy
7:53 PM 75.9 °F - 63.0 °F 64% 30.13 in 10.0 mi ESE 11.5 mph - N/A   Mostly Cloudy
8:53 PM 75.0 °F - 61.0 °F 62% 30.11 in 10.0 mi ESE 13.8 mph - N/A   Mostly Cloudy
9:53 PM 75.0 °F - 60.1 °F 60% 30.11 in 10.0 mi ESE 11.5 mph - N/A   Mostly Cloudy
10:53 PM 73.9 °F - 60.1 °F 62% 30.12 in 10.0 mi East 13.8 mph - N/A   Mostly Cloudy
11:53 PM 73.9 °F - 60.1 °F 62% 30.13 in 10.0 mi ESE 8.1 mph - N/A   Scattered Clouds